Regional Weather Roundup
Issued by NWS Jackson, KY

Home | Current Version | Previous Version | Graphics & Text | Print | Product List | Glossary On
Versions: 1 2 3 4 5 6 7 8 9 10 11 12 13 14 15 16 17 18 19 20 21 22 23 24 25 26 27 28 29 30 31 32 33 34 35 36 37 38 39 40 41 42 43 44 45 46 47 48 49 50
000
ASUS43 KJKL 300510
RWRJKL

EAST KENTUCKY HOURLY WEATHER ROUNDUP
NATIONAL WEATHER SERVICE JACKSON KY
100 AM EDT THU MAR 30 2017

NOTE: "FAIR" INDICATES FEW OR NO CLOUDS BELOW 12,000 FEET WITH
NO SIGNIFICANT WEATHER AND/OR OBSTRUCTIONS TO VISIBILITY.

* THESE REPORTS ARE NOT UNDER NWS QUALITY CONTROL AND MAY NOT
  REPORT WEATHER SUCH AS PRECIPITATION AND FOG.

KYZ079-080-083-085-087-088-110-112-115-119-120-300600
...EASTERN KENTUCKY...

CITY           SKY/WX    TMP DP  RH WIND       PRES   REMARKS
JACKSON        CLEAR     51  45  79 NE5       30.01F
LONDON         CLEAR     59  47  64 NE6       29.98F
SOMERSET*      CLOUDY    59  48  67 CALM      29.98S
MONTICELLO*    CLEAR     57  51  80 W8        29.97F
WILLIAMSBURG*  CLEAR     59  50  72 E3        29.97F
MIDDLESBORO*   CLEAR     54  51  90 CALM      30.00S
HARLAN APT*    CLEAR     55  50  82 CALM      30.01F
PIKE CO APT*   CLOUDY    52  48  86 N6        30.02F
BIG SANDY APT* CLEAR     51  46  85 CALM      30.03F
MOREHEAD APT*  MOCLDY    54  43  66 VRB7G15   30.04S
ASHLAND*       PTCLDY    45  43  93 CALM      30.02F
$$

KYZ035-036-041-042-044-050-067-078-099-300600
...CENTRAL KENTUCKY...

CITY           SKY/WX    TMP DP  RH WIND       PRES   REMARKS
MT STERLING*   CLOUDY    52  45  76 E9        30.02F
FLEMING/MASON* CLEAR     49  44  81 E7        30.03F
DANVILLE*      CLOUDY    52  46  82 E8        29.98F
LEXINGTON      CLOUDY    53  44  71 E12G23    29.99F
FRANKFORT      PTCLDY    53  44  71 E12       29.97F
LOUISVILLE     CLOUDY    57  45  64 E10       29.93F
LEBANON*         N/A     55  48  76 E7        29.95F
GLASGOW*       MOCLDY    62  53  72 E6        29.89F
BOWLING GREEN  MOCLDY    63  55  75 CALM      29.87F
$$

KYZ091>093-OHZ055-061-077-WVZ005-015-034-035-042-300600
...SOUTHERN OHIO/WEST VIRGINIA...

CITY           SKY/WX    TMP DP  RH WIND       PRES   REMARKS
COVINGTON      CLOUDY    53  43  68 SE14      29.98F
COLUMBUS       CLOUDY    50  34  54 E6        30.06R
DAYTON         MOCLDY    51  36  56 E13       30.02F
WILMINGTON     CLOUDY    48  42  80 E7        30.00F
HUNTINGTON     CLEAR     51  42  71 E6        30.03F
CHARLESTON     CLEAR     47  42  83 CALM      30.04F
PINEVILLE*     CLEAR     48  44  84 MISG      30.09F
BECKLEY        CLEAR     54  43  66 SE13      30.06F
BLUEFIELD      CLEAR     55  44  66 E6        30.08F
LOGAN CO APT*    N/A     52  46  82 CALM      30.03S
$$

VAZ002-007-008-TNZ017-027-036-066-071-300600
...SOUTHWEST VIRGINIA/EAST TENNESSEE...

CITY           SKY/WX    TMP DP  RH WIND       PRES   REMARKS
WISE*          CLEAR     57  45  62 CALM      30.05F
JONESVILLE*      N/A     54  50  87 CALM      30.03S
ABINGDON*      CLEAR     58  47  68 E3        30.05S
BRISTOL        CLEAR     51  47  86 CALM      30.02S
MORRISTOWN*    PTCLDY    63  48  59 CALM      29.97F
SEVIERVILLE*   CLEAR     54  48  82 CALM      29.97S
KNOXVILLE      CLEAR     62  50  64 NE3       29.95F
LAFOLLETTE*    MOCLDY    54  52  94 CALM      30.00F
OAK RIDGE      CLEAR     60  52  74 CALM      29.97S
CROSSVILLE     CLEAR     60  52  74 E3        29.97F
NASHVILLE      CLOUDY    70  59  68 S3        29.88F
$$

...KEY TO REMARKS...
VSB - VISIBILITY IN MILES
WCI - WIND CHILL INDEX
HX  - HEAT INDEX

$$



USA.gov is the U.S. government's official web portal to all federal, state and local government web resources and services.